This is the latest recevied weather packets stored in our database for station/object KSRC. If no packets are shown the sender has not sent any weather packets the latest 1 day(s).
| Time | Temp. | Humidity | Pressure | Rain* | Wind** | Luminosity | Snow |
|---|---|---|---|---|---|---|---|
| 1778097820 | - | - | 1016.9 hPa | - | - | - | - |
| 1778097222 | 10.56° C | 93% | 1017.3 hPa | - | - | - | - |
| 1778094221 | 10.56° C | 93% | 1017.3 hPa | - | - | - | - |
| 1778093621 | 11.67° C | 81% | 1016.6 hPa | - | - | - | - |
| 1778090744 | - | - | 1018.3 hPa | - | - | - | - |
| 1778090019 | 10.56° C | 87% | 1018.6 hPa | - | - | - | - |
| 1778089420 | 11.67° C | 76% | 1016.3 hPa | - | - | - | - |
| 1778087623 | 11.67° C | 76% | 1016.3 hPa | - | - | - | - |
| 1778087022 | 11.67° C | 76% | 1016.3 hPa | - | - | - | - |
| 1778085223 | 11.67° C | 71% | 1015.9 hPa | - | - | - | - |
| 1778084622 | 11.67° C | 71% | 1015.9 hPa | - | - | - | - |
| 1778084022 | 11.67° C | 71% | 1015.9 hPa | - | - | - | - |
| 1778082220 | 11.67° C | 76% | 1016.6 hPa | - | - | - | - |
| 1778081022 | 11.67° C | 76% | 1016.6 hPa | - | - | - | - |
| 1778080421 | 10.56° C | 81% | 1016.3 hPa | - | - | - | - |
| 1778078021 | 10° C | 87% | 1015.9 hPa | - | - | - | - |
| 1778077417 | 10° C | 87% | 1015.9 hPa | - | - | - | - |
| 1778076818 | 10° C | 87% | 1015.9 hPa | - | - | - | - |
| 1778075018 | 10° C | 87% | 1015.6 hPa | - | - | - | - |
| 1778070818 | 8.89° C | 93% | 1013.5 hPa | - | - | - | - |
| 1778069619 | 8.89° C | 93% | 1013.5 hPa | - | - | - | - |
| 1778067819 | 8.89° C | 100% | 1012.5 hPa | - | - | - | - |
| 1778065418 | 8.89° C | 100% | 1012.5 hPa | - | - | - | - |
| 1778063619 | 10° C | 93% | 1012.9 hPa | - | - | - | - |
| 1778063021 | 10° C | 93% | 1012.9 hPa | - | - | - | - |
* Rain since midnight (hover to see other rain measurements)
** Current wind speed in m/s (hover to see current wind gust speed)